This is the latest recevied weather packets stored in our database for station/object KE0QIB. If no packets are shown the sender has not sent any weather packets the latest 1 day(s).
| Time | Temp. | Humidity | Pressure | Rain* | Wind** | Luminosity | Snow |
|---|---|---|---|---|---|---|---|
| 1778036211 | 3.33° C | 48% | 1004.2 hPa | 0 mm | 0.45 m/s, 296° | - | - |
| 1778035911 | 3.33° C | 48% | 1003.7 hPa | 0 mm | 0.45 m/s, 265° | - | - |
| 1778035611 | 3.33° C | 48% | 1003.7 hPa | 0 mm | 0 m/s | - | - |
| 1778035311 | 3.33° C | 48% | 1003.7 hPa | 0 mm | 0 m/s | - | - |
| 1778035011 | 3.33° C | 48% | 1003.6 hPa | 0 mm | 0.45 m/s, 34° | - | - |
| 1778034711 | 3.89° C | 49% | 1003.6 hPa | 0 mm | 0.45 m/s, 35° | - | - |
| 1778034411 | 3.89° C | 49% | 1003.6 hPa | 0 mm | 0.45 m/s, 36° | - | - |
| 1778034111 | 3.89° C | 49% | 1003.5 hPa | 0 mm | 0.45 m/s, 36° | - | - |
| 1778033811 | 3.89° C | 49% | 1003.5 hPa | 0 mm | 0.45 m/s, 215° | - | - |
| 1778033511 | 3.89° C | 48% | 1003.5 hPa | 0 mm | 0.45 m/s, 215° | - | - |
| 1778033211 | 3.89° C | 49% | 1003.2 hPa | 0 mm | 0.45 m/s, 250° | - | - |
| 1778032911 | 3.89° C | 49% | 1003.2 hPa | 0 mm | 0.45 m/s, 57° | - | - |
| 1778032611 | 3.89° C | 49% | 1003.2 hPa | 0 mm | 0.89 m/s, 56° | - | - |
| 1778032311 | 3.89° C | 48% | 1002.8 hPa | 0 mm | 0.45 m/s, 348° | - | - |
| 1778032011 | 3.89° C | 48% | 1002.8 hPa | 0 mm | 0.45 m/s, 52° | - | - |
| 1778031711 | 4.44° C | 47% | 1002.8 hPa | 0 mm | 0.45 m/s, 51° | - | - |
| 1778031411 | 4.44° C | 48% | 1002.7 hPa | 0 mm | 0.45 m/s, 24° | - | - |
| 1778031111 | 4.44° C | 47% | 1002.7 hPa | 0 mm | 0.45 m/s, 21° | - | - |
| 1778030811 | 4.44° C | 48% | 1002.7 hPa | 0 mm | 0.45 m/s, 21° | - | - |
| 1778030511 | 4.44° C | 48% | 1002.9 hPa | 0 mm | 0.45 m/s, 321° | - | - |
| 1778030211 | 4.44° C | 48% | 1002.9 hPa | 0 mm | 0.89 m/s, 321° | - | - |
| 1778029911 | 4.44° C | 48% | 1002.9 hPa | 0 mm | 0.45 m/s, 33° | - | - |
| 1778029611 | 4.44° C | 49% | 1002.6 hPa | 0 mm | 0.45 m/s, 23° | - | - |
| 1778029311 | 4.44° C | 49% | 1002.6 hPa | 0 mm | 0 m/s | - | - |
| 1778029011 | 4.44° C | 50% | 1002.6 hPa | 0 mm | 0 m/s | - | - |
* Rain latest hour (hover to see other rain measurements)
** Current wind speed in m/s (hover to see current wind gust speed)